Latest Weather Observations for Oakey

IDQ60901

Issued at 7:05 pm EST Tuesday 21 October 2014 (issued every 10 minutes, with the page automatically refreshed every 10 minutes)

About weather observations | Map of Brisbane area stations | Latest observations for Brisbane area | Other Formats
Station Details ID: 041359 Name: OAKEY AERO Lat: -27.40 Lon: 151.74 Height: 405.69 m
Data from the previous 72 hours. | See also: Recent months at Oakey
Date/Time
EST
Tmp

°C
App
Tmp
°C
Dew
Point
°C
Rel
Hum
%
Delta-T

°C
Wind Press
QNH
hPa
Press
MSL
hPa
Rain
since
9 am
mm
Dir
 
Spd
km/h
Gust
km/h
Spd
kts
Gust
kts
21/07:00pm 19.0 14.7 10.6 58 4.6 E 24 28 13 15 1025.9 - 0.0
21/06:30pm 19.7 13.9 10.7 56 5.0 E 32 41 17 22 1025.5 - 0.0
21/06:00pm 21.0 15.6 10.8 52 5.7 E 30 43 16 23 1025.2 1024.0 0.0
21/05:30pm 22.3 16.4 10.5 47 6.6 E 32 41 17 22 1024.8 - 0.0
21/05:00pm 23.6 18.3 9.9 42 7.6 ENE 28 39 15 21 1024.5 - 0.0
21/04:30pm 24.2 19.0 10.1 41 7.9 ENE 28 37 15 20 1024.3 - 0.0
21/04:00pm 24.0 20.0 10.3 42 7.7 ENE 22 32 12 17 1024.1 - 0.0
21/03:30pm 24.7 20.1 10.9 42 7.9 ENE 26 37 14 20 1024.1 - 0.0
21/03:00pm 24.4 20.5 10.7 42 7.7 ENE 22 32 12 17 1024.3 1023.0 0.0
21/02:30pm 24.7 21.1 10.6 41 8.0 ESE 20 26 11 14 1024.5 - 0.0
21/02:00pm 23.4 18.4 10.8 45 7.1 E 28 33 15 18 1024.9 - 0.0
21/01:30pm 23.4 19.8 11.8 48 6.7 ENE 22 32 12 17 1025.3 - 0.0
21/01:00pm 23.2 19.8 11.3 47 6.8 ENE 20 28 11 15 1025.7 - 0.0
21/12:30pm 22.3 18.3 11.7 51 6.1 ENE 24 32 13 17 1026.4 - 0.0
21/12:00pm 22.7 18.8 12.0 50 6.1 ENE 24 32 13 17 1026.8 1025.6 0.0
21/11:30am 22.2 19.1 12.2 53 5.8 ENE 20 28 11 15 1027.3 - 0.0
21/11:00am 21.7 17.0 12.0 54 5.6 E 28 35 15 19 1027.5 - 0.0
21/10:30am 21.3 17.0 12.2 56 5.2 ESE 26 37 14 20 1027.7 - 0.0
21/10:00am 21.2 16.2 12.3 57 5.1 ESE 30 37 16 20 1027.9 - 0.0
21/09:30am 21.1 15.6 12.0 56 5.2 ENE 32 39 17 21 1027.7 - 0.0
21/09:00am 21.6 16.8 13.0 58 5.0 E 30 41 16 22 1027.6 1026.4 0.0
21/08:30am 19.7 15.2 12.7 64 4.0 ESE 28 33 15 18 1027.5 - 0.0
21/08:00am 18.7 14.4 13.3 71 3.1 ENE 28 35 15 19 1027.6 - 0.0
21/07:30am 18.2 14.3 13.3 73 2.8 E 26 33 14 18 1027.4 - 0.0
21/07:00am 17.7 13.7 13.0 74 2.7 E 26 35 14 19 1027.1 - 0.0
21/06:30am 17.4 13.8 12.9 75 2.6 E 24 32 13 17 1026.6 - 0.0
21/06:00am 17.2 14.9 12.9 76 2.4 E 17 24 9 13 1026.3 1025.0 0.0
21/05:47am 17.0 14.2 12.7 76 2.4 E 19 24 10 13 1026.3 - 0.0
21/05:30am 16.6 14.2 12.6 77 2.3 E 17 22 9 12 1026.1 - 0.0
21/05:00am 17.0 14.6 12.5 75 2.5 E 17 24 9 13 1025.9 - 0.0
21/04:30am 17.0 14.6 12.5 75 2.5 E 17 24 9 13 1025.5 - 0.0
21/04:00am 17.1 14.3 12.6 75 2.5 E 19 24 10 13 1025.5 - 0.0
21/03:30am 16.9 13.8 12.2 74 2.6 ENE 20 28 11 15 1025.3 - 0.0
21/03:00am 16.9 13.5 12.4 75 2.5 E 22 28 12 15 1025.3 1024.1 0.0
21/02:30am 17.1 12.8 12.2 73 2.8 E 26 30 14 16 1025.3 - 0.0
21/02:00am 17.4 13.9 12.1 71 3.0 E 22 30 12 16 1025.4 - 0.0
21/01:30am 17.5 14.8 11.8 69 3.2 E 17 26 9 14 1025.7 - 0.0
21/01:00am 17.5 14.3 11.8 69 3.2 ENE 20 28 11 15 1025.9 - 0.0
21/12:30am 17.4 14.0 11.4 68 3.3 ENE 20 32 11 17 1026.3 - 0.0
21/12:00am 17.5 14.3 11.8 69 3.2 ENE 20 33 11 18 1026.4 1025.1 0.0
 
Date/Time
EST
Tmp

°C
App
Tmp
°C
Dew
Point
°C
Rel
Hum
%
Delta-T

°C
Wind Press
QNH
hPa
Press
MSL
hPa
Rain
since
9 am
mm
Dir
 
Spd
km/h
Gust
km/h
Spd
kts
Gust
kts
20/11:30pm 16.9 14.1 11.2 69 3.1 ENE 17 26 9 14 1026.5 - 0.0
20/11:00pm 17.2 14.3 11.0 67 3.4 ENE 17 24 9 13 1026.6 - 0.0
20/10:30pm 17.2 15.1 11.0 67 3.4 ENE 13 20 7 11 1026.8 - 0.0
20/10:00pm 17.8 12.0 10.9 64 3.8 E 32 41 17 22 1026.8 - 0.0
20/09:30pm 18.6 12.6 10.7 60 4.3 E 33 43 18 23 1026.5 - 0.0
20/09:00pm 19.5 13.0 10.2 55 5.1 E 35 41 19 22 1026.1 1024.8 0.0
20/08:30pm 20.5 15.6 10.0 51 5.8 E 26 33 14 18 1025.8 - 0.0
20/08:00pm 21.1 16.1 9.4 47 6.4 ESE 26 32 14 17 1025.3 - 0.0
20/07:30pm 22.3 16.5 9.5 44 7.0 ESE 30 35 16 19 1024.7 - 0.0
20/07:00pm 23.6 18.0 8.8 39 8.1 E 28 39 15 21 1024.0 - 0.0
20/06:30pm 24.7 19.3 7.8 34 9.1 ENE 26 35 14 19 1023.0 - 0.0
20/06:00pm 25.5 19.6 7.6 32 9.6 E 28 33 15 18 1022.4 1021.1 0.0
20/05:30pm 26.5 20.2 7.5 30 10.3 E 30 37 16 20 1022.0 - 0.0
20/05:00pm 27.5 22.1 7.9 29 10.8 ENE 26 35 14 19 1021.7 - 0.0
20/04:30pm 28.3 21.8 8.1 28 11.2 ENE 32 43 17 23 1021.3 - 0.0
20/04:00pm 29.0 23.8 8.7 28 11.4 ENE 26 33 14 18 1021.0 - 0.0
20/03:30pm 29.8 25.6 8.2 26 12.1 E 20 32 11 17 1020.7 - 0.0
20/03:00pm 29.9 27.0 8.3 26 12.1 SSE 13 28 7 15 1020.7 1019.5 0.0
20/02:30pm 29.4 26.8 7.9 26 11.9 NE 11 20 6 11 1021.1 - 0.0
20/02:00pm 28.9 25.6 8.0 27 11.6 ESE 15 24 8 13 1021.4 - 0.0
20/01:30pm 29.0 25.0 8.1 27 11.6 S 19 26 10 14 1021.9 - 0.0
20/01:00pm 27.8 25.3 8.1 29 10.9 S 11 17 6 9 1022.5 - 0.0
20/12:30pm 27.3 24.8 8.2 30 10.5 SE 11 20 6 11 1023.0 - 0.0
20/12:00pm 26.6 24.6 8.6 32 9.9 W 9 17 5 9 1023.7 1022.4 0.0
20/11:30am 25.8 23.2 9.2 35 9.2 SSW 13 20 7 11 1024.3 - 0.0
20/11:00am 24.6 21.8 8.5 36 8.8 SE 13 19 7 10 1024.9 - 0.0
20/10:30am 23.7 22.2 9.3 40 7.9 W 7 11 4 6 1025.5 - 0.0
20/10:00am 23.1 21.3 9.5 42 7.5 E 9 17 5 9 1025.9 - 0.0
20/09:30am 22.9 21.8 10.7 46 6.9 N 7 11 4 6 1026.2 - 0.0
20/09:00am 20.9 19.7 10.4 51 5.8 NE 7 11 4 6 1026.4 1025.1 0.0
20/08:30am 19.9 19.1 10.9 56 5.0 NNE 6 17 3 9 1026.6 - 0.0
20/08:00am 18.0 16.8 10.4 61 4.1 NNE 7 13 4 7 1026.4 - 0.0
20/07:30am 17.1 16.0 10.5 65 3.6 ENE 7 11 4 6 1026.5 - 0.0
20/07:00am 15.7 14.1 10.2 70 2.9 E 9 11 5 6 1026.4 - 0.0
20/06:30am 14.2 13.0 10.4 78 2.0 ESE 7 9 4 5 1026.2 - 0.0
20/06:00am 11.8 11.9 10.0 89 0.9 CALM 0 0 0 0 1025.7 1024.5 0.0
20/05:30am 10.0 9.6 8.4 90 0.8 CALM 0 0 0 0 1025.5 - 0.0
20/05:00am 10.2 9.9 8.5 89 0.8 CALM 0 0 0 0 1025.5 - 0.0
20/04:30am 10.5 9.4 8.6 88 1.0 N 4 6 2 3 1025.2 - 0.0
20/04:00am 11.0 10.1 9.1 88 1.0 ESE 4 7 2 4 1025.1 - 0.0
20/03:30am 10.9 8.9 8.8 87 1.1 ESE 9 9 5 5 1024.9 - 0.0
20/03:00am 11.0 8.6 8.6 85 1.2 ENE 11 13 6 7 1024.9 1023.7 0.0
20/02:30am 11.9 9.4 9.6 86 1.2 ENE 13 15 7 8 1024.9 - 0.0
20/02:00am 12.7 10.5 9.5 81 1.7 ENE 11 15 6 8 1025.2 - 0.0
20/01:30am 13.4 10.6 10.0 80 1.8 ENE 15 17 8 9 1025.3 - 0.0
20/01:00am 13.7 10.9 9.9 78 2.0 ENE 15 19 8 10 1025.7 - 0.0
20/12:30am 14.4 10.9 10.2 76 2.2 ENE 19 24 10 13 1025.9 - 0.0
20/12:00am 14.5 11.3 10.1 75 2.3 ENE 17 20 9 11 1026.3 1025.0 0.0
 
Date/Time
EST
Tmp

°C
App
Tmp
°C
Dew
Point
°C
Rel
Hum
%
Delta-T

°C
Wind Press
QNH
hPa
Press
MSL
hPa
Rain
since
9 am
mm
Dir
 
Spd
km/h
Gust
km/h
Spd
kts
Gust
kts
19/11:30pm 15.0 11.4 10.4 74 2.5 ENE 20 24 11 13 1026.7 - 0.0
19/11:00pm 15.4 11.8 10.4 72 2.7 ENE 20 24 11 13 1026.8 - 0.0
19/10:30pm 15.9 12.3 10.7 71 2.8 ENE 20 26 11 14 1026.7 - 0.0
19/10:00pm 16.4 11.7 10.7 69 3.1 ENE 26 32 14 17 1026.5 - 0.0
19/09:30pm 16.9 12.3 11.0 68 3.2 ENE 26 32 14 17 1026.3 - 0.0
19/09:00pm 17.5 13.2 10.9 65 3.6 ENE 24 32 13 17 1025.9 1024.7 0.0
19/08:30pm 18.3 14.0 10.9 62 4.1 ENE 24 32 13 17 1025.6 - 0.0
19/08:00pm 19.2 15.2 10.5 57 4.8 NE 22 30 12 16 1025.3 - 0.0
19/07:30pm 20.3 15.7 9.5 50 5.9 NE 24 32 13 17 1024.7 - 0.0
19/07:00pm 20.7 16.6 6.3 39 7.4 ENE 17 20 9 11 1024.4 - 0.0
19/06:30pm 21.1 17.5 6.6 39 7.5 ENE 15 17 8 9 1024.1 - 0.0
19/06:00pm 22.8 18.2 6.6 35 8.4 ENE 20 24 11 13 1023.8 1022.5 0.0
19/05:30pm 24.2 19.7 6.9 33 9.2 ENE 20 28 11 15 1023.3 - 0.0
19/05:00pm 25.0 20.4 6.7 31 9.7 E 20 28 11 15 1023.0 - 0.0
19/04:30pm 25.5 21.5 6.7 30 10.0 ENE 17 22 9 12 1022.7 - 0.0
19/04:00pm 26.2 21.9 7.7 31 10.1 ESE 20 28 11 15 1022.7 - 0.0
19/03:30pm 26.0 23.0 7.6 31 10.0 ENE 13 22 7 12 1022.5 - 0.0
19/03:00pm 25.9 22.1 7.5 31 9.9 ENE 17 28 9 15 1022.9 1021.7 0.0
19/02:30pm 25.7 22.0 7.8 32 9.7 E 17 32 9 17 1023.2 - 0.0
19/02:00pm 25.4 23.6 8.0 33 9.5 ESE 7 19 4 10 1023.9 - 0.0
19/01:30pm 25.3 22.7 7.9 33 9.4 E 11 20 6 11 1024.4 - 0.0
19/01:00pm 24.7 20.3 7.4 33 9.3 ESE 20 26 11 14 1025.1 - 0.0
19/12:30pm 24.0 19.9 6.3 32 9.3 SSE 17 28 9 15 1025.6 - 0.0
19/12:00pm 24.2 19.8 7.4 34 8.9 S 20 30 11 16 1025.9 1024.7 0.0
19/11:30am 23.9 20.6 7.9 36 8.6 SSE 15 32 8 17 1026.3 - 0.0
19/11:00am 23.4 19.8 8.3 38 8.2 S 17 28 9 15 1026.8 - 0.0
19/10:30am 22.0 19.1 8.2 41 7.4 ENE 13 26 7 14 1027.1 - 0.0
19/10:00am 22.3 18.9 9.1 43 7.2 ENE 17 28 9 15 1027.6 - 0.0
19/09:30am 21.4 16.6 8.7 44 6.8 E 24 35 13 19 1028.0 - 0.0
19/09:00am 20.9 15.7 8.9 46 6.4 ENE 26 33 14 18 1028.1 1026.9 0.0
19/08:30am 20.0 15.3 9.3 50 5.8 ENE 24 35 13 19 1028.2 - 0.0
19/08:00am 19.4 14.5 9.9 54 5.2 ENE 26 33 14 18 1028.1 - 0.0
19/07:30am 18.2 12.2 10.1 59 4.4 ENE 32 39 17 21 1027.9 - 0.0
19/07:00am 17.1 12.4 10.7 66 3.5 ENE 26 37 14 20 1027.7 - 0.0
19/06:30am 15.9 11.9 10.4 70 3.0 ENE 22 32 12 17 1027.5 - 0.0
19/06:00am 14.7 12.0 10.5 76 2.2 ENE 15 20 8 11 1027.1 1025.9 0.0
19/05:30am 13.6 10.5 10.2 80 1.8 E 17 22 9 12 1026.9 - 0.0
19/05:00am 13.5 9.8 10.1 80 1.8 ENE 20 32 11 17 1026.5 - 0.0
19/04:30am 13.8 9.5 10.6 81 1.7 ENE 24 32 13 17 1026.2 - 0.0
19/04:00am 13.9 10.3 10.7 81 1.7 ENE 20 26 11 14 1025.8 - 0.0
19/03:30am 13.7 10.3 10.5 81 1.7 ENE 19 24 10 13 1025.6 - 0.0
19/03:00am 13.7 10.6 10.3 80 1.8 ENE 17 24 9 13 1025.6 1024.4 0.0
19/02:30am 13.8 10.7 10.4 80 1.8 E 17 30 9 16 1025.6 - 0.0
19/02:00am 14.2 10.5 10.2 77 2.1 E 20 26 11 14 1025.8 - 0.0
19/01:30am 14.7 10.4 10.7 77 2.2 ENE 24 33 13 18 1025.8 - 0.0
19/01:00am 14.9 9.6 11.1 78 2.1 ENE 30 39 16 21 1026.1 - 0.0
19/12:30am 14.9 11.0 10.9 77 2.2 ENE 22 30 12 16 1026.4 - 0.0
19/12:00am 15.1 10.4 10.5 74 2.5 ENE 26 33 14 18 1026.7 1025.4 0.0
 
Date/Time
EST
Tmp

°C
App
Tmp
°C
Dew
Point
°C
Rel
Hum
%
Delta-T

°C
Wind Press
QNH
hPa
Press
MSL
hPa
Rain
since
9 am
mm
Dir
 
Spd
km/h
Gust
km/h
Spd
kts
Gust
kts
18/11:30pm 15.4 10.3 10.6 73 2.6 ENE 28 37 15 20 1026.7 - 0.0
18/11:00pm 15.3 11.4 10.7 74 2.5 ENE 22 32 12 17 1026.9 - 0.0
18/10:30pm 15.6 11.3 10.8 73 2.6 ENE 24 33 13 18 1026.9 - 0.0
18/10:00pm 15.9 10.1 10.7 71 2.8 ENE 32 39 17 21 1027.0 - 0.0
18/09:30pm 16.4 10.6 10.7 69 3.1 ENE 32 43 17 23 1026.9 - 0.0
18/09:00pm 16.6 11.6 11.1 70 3.0 ENE 28 33 15 18 1026.7 1025.4 0.0
18/08:30pm 17.2 12.2 11.0 67 3.4 NE 28 35 15 19 1026.5 - 0.0
18/08:00pm 17.8 13.5 10.7 63 3.9 NE 24 30 13 16 1026.3 - 0.0
18/07:30pm 18.6 12.7 10.4 59 4.5 NE 32 39 17 21 1025.9 - 0.0

Latest Capital City Observations: Canberra | Sydney | Melbourne | Brisbane | Adelaide | Perth | Hobart | Darwin

Other Formats:

Comma delimited format used in spreadsheet applications
http://www.bom.gov.au/fwo/IDQ60901/IDQ60901.94552.axf

JavaScript Object Notation format (JSON) in row-major order
http://www.bom.gov.au/fwo/IDQ60901/IDQ60901.94552.json